Theta_e
288 288 288 288 288 288 288 288 287 287 287 287 287 287 287 287 287 287 287 287 286 286 286 286 286 285 285 285 285 285 285 285 285 285 285 286 286 286 287 287 286 286 286 286 287 288 289 291 291 291 291 291 292 292 292 292 292 292 291 291 291 291 291 290 290 291 292 292 293 293 294 295 295 296 296 296 296 295 293 293 292 291 290 290 290
288 288 288 288 288 288 288 288 287 287 287 287 287 287 287 286 286 286 286 286 286 286 286 285 285 285 285 285 285 285 285 285 285 285 285 285 285 285 286 286 286 286 286 286 286 285 286 288 289 290 291 291 291 291 291 292 292 291 291 291 290 290 290 290 289 290 291 291 292 293 293 294 294 295 295 295 296 295 294 294 293 292 291 291 290
288 288 287 287 287 287 287 287 287 287 287 287 287 286 286 286 286 285 285 285 285 285 285 285 284 284 284 284 284 284 284 284 284 284 284 284 284 284 285 285 285 286 286 286 286 286 285 285 286 287 289 290 290 290 290 291 291 291 291 291 290 290 290 290 289 289 290 290 291 292 292 293 293 294 294 295 295 295 295 294 294 293 292 291 290
288 288 287 287 287 287 287 287 287 287 287 286 286 286 285 285 285 285 284 284 284 284 284 284 284 283 283 283 283 283 283 283 283 283 283 283 284 284 284 284 285 285 285 286 286 286 285 285 285 285 286 288 289 290 290 290 290 290 290 290 290 290 289 289 289 289 289 289 290 291 291 292 292 293 293 293 294 294 293 293 292 292 292 291 290
289 288 288 287 287 287 287 287 286 286 286 286 285 285 285 284 284 284 284 283 283 283 283 283 283 283 283 283 282 282 282 282 282 283 283 283 283 283 283 283 284 284 284 285 285 286 286 286 286 285 285 287 287 288 289 289 289 289 290 290 290 290 289 289 289 289 288 288 289 290 290 291 292 292 292 292 292 291 291 291 290 290 290 290 289
288 288 288 287 287 287 287 286 286 285 285 284 284 284 284 283 283 283 283 283 283 283 283 283 282 282 282 282 282 282 282 282 282 282 282 282 283 283 283 283 283 283 283 284 284 285 285 285 286 286 285 286 286 286 287 288 289 289 289 289 289 289 289 289 289 288 288 288 288 288 289 290 290 291 291 291 290 290 289 289 288 288 288 288 288
288 287 287 287 286 286 286 285 285 285 284 283 283 283 282 282 282 282 282 282 282 282 282 282 282 281 281 281 281 282 282 282 282 282 282 282 282 282 282 282 282 283 283 283 284 284 284 285 285 286 286 286 286 286 286 286 287 288 288 289 289 288 288 288 288 288 288 288 288 288 288 289 289 290 290 290 289 289 289 288 287 287 287 287 288
287 287 286 286 286 286 286 285 285 284 284 283 282 282 281 281 281 281 281 281 281 281 281 280 280 280 280 280 281 281 281 281 282 282 282 282 282 282 282 282 282 282 283 283 283 283 284 284 284 285 285 286 286 286 286 286 286 287 287 288 288 288 288 288 288 288 288 288 288 288 288 288 288 288 289 288 287 287 287 287 286 287 286 287 287
287 287 286 286 286 285 285 284 284 283 283 282 281 281 280 280 280 279 279 279 279 279 279 279 279 279 279 280 280 280 280 281 281 281 281 281 281 281 282 282 282 282 283 283 283 283 283 283 284 284 285 285 285 285 286 286 286 286 286 287 288 288 288 288 288 288 288 288 288 288 288 287 287 287 286 286 286 286 286 286 286 287 287 286 286
286 286 286 285 284 284 283 283 282 282 281 280 279 279 278 278 278 278 278 277 277 277 277 277 277 278 278 278 278 279 279 279 279 280 280 281 281 282 282 282 282 282 283 283 283 283 283 283 283 284 284 284 284 285 285 285 286 286 286 286 287 288 288 288 288 288 288 288 288 288 288 288 287 287 286 286 287 287 286 286 286 286 286 285 285
285 284 284 283 282 282 281 281 280 280 279 278 278 277 277 277 277 276 276 276 276 276 275 276 276 276 276 276 277 277 277 277 278 279 279 280 280 281 281 281 281 282 282 282 282 282 283 283 283 283 283 283 284 284 284 285 285 285 285 286 286 287 288 287 288 288 288 288 288 288 288 288 288 288 287 287 287 286 286 286 286 286 286 285 286
283 282 281 281 280 280 279 279 278 277 277 276 276 276 275 275 275 275 275 275 275 274 274 274 274 274 274 274 274 274 274 274 275 276 277 277 278 279 279 280 280 280 281 281 281 282 282 282 282 283 283 283 283 284 284 284 284 284 285 285 285 286 287 288 288 288 288 288 288 288 288 288 288 288 288 287 287 286 286 286 286 286 286 286 286
281 281 280 279 278 277 277 276 276 275 275 275 274 274 274 274 274 273 273 273 273 273 272 272 272 271 271 271 271 271 271 272 273 273 274 275 276 277 277 278 278 279 279 280 280 281 281 281 282 282 282 283 283 283 283 283 283 284 284 285 285 286 286 287 288 288 288 288 288 288 288 288 288 288 288 288 287 286 286 285 285 286 286 286 287
279 279 278 277 276 275 275 274 274 274 273 273 273 273 272 272 272 271 271 271 270 270 270 269 269 269 268 268 268 268 268 269 270 271 272 273 274 275 275 276 276 277 277 278 279 279 280 280 281 281 282 282 282 282 282 283 283 283 284 284 285 285 286 286 287 287 288 289 288 288 288 288 288 288 288 288 288 287 286 286 285 285 285 286 287
277 276 275 274 274 274 273 273 273 272 272 272 271 271 270 270 269 269 268 268 268 267 267 267 267 267 266 266 266 266 266 267 268 269 270 271 272 273 273 274 274 275 275 276 277 278 278 279 279 280 280 280 281 281 282 282 283 283 283 284 284 284 285 285 286 286 287 288 288 288 289 289 289 288 288 288 288 288 287 287 287 286 286 286 286
275 274 273 273 272 272 272 271 271 271 271 270 270 269 269 268 267 267 266 266 266 265 265 265 265 265 265 264 264 264 265 265 267 268 269 270 271 271 271 272 272 272 273 274 275 276 277 278 278 279 279 280 280 281 281 282 283 283 283 283 284 284 284 285 285 285 285 286 287 287 288 288 289 289 289 289 288 288 288 287 287 286 286 285 285
273 272 272 271 271 271 270 270 269 269 269 268 268 267 267 266 266 265 265 265 264 264 264 264 264 264 263 263 263 264 264 264 265 267 268 269 269 270 270 271 271 271 272 272 273 274 274 275 276 277 277 278 279 279 280 281 282 283 283 284 284 284 284 284 284 284 285 285 286 286 287 287 288 288 289 289 289 288 287 286 286 286 285 285 285
272 271 271 270 270 269 269 268 268 267 267 266 266 266 265 265 265 264 264 264 263 263 263 263 263 263 263 263 263 263 263 264 265 266 267 268 269 269 270 271 271 271 272 272 272 273 273 274 274 275 276 277 277 278 279 280 281 282 283 283 283 283 283 284 284 284 284 285 285 286 286 287 287 287 288 288 289 289 288 286 286 286 285 285 286
270 270 269 269 269 269 268 268 267 266 265 265 265 264 264 264 264 263 263 263 263 263 262 262 262 262 262 262 262 263 263 263 264 265 266 267 269 269 270 270 270 271 271 271 272 272 273 273 273 274 275 275 276 277 278 279 280 281 282 282 283 283 283 283 283 284 284 284 285 285 286 286 286 287 288 288 288 289 289 288 287 286 286 285 286
269 269 268 268 269 268 268 267 266 265 265 264 264 264 263 263 263 263 263 262 262 262 262 262 262 262 262 262 262 262 263 263 263 264 266 267 268 269 269 270 270 270 270 270 271 271 272 272 273 273 274 275 276 277 278 278 279 279 280 281 282 283 283 283 283 284 284 284 284 285 285 285 286 286 286 287 287 288 289 289 288 287 286 286 286
268 268 268 268 268 267 266 265 265 264 264 264 263 263 263 263 263 262 262 262 262 262 262 261 261 262 262 262 262 262 262 263 263 264 266 267 268 268 269 269 269 270 270 270 271 271 271 271 272 272 273 274 275 276 277 278 278 279 279 280 281 281 282 282 283 283 284 284 284 285 285 285 285 285 286 286 287 287 288 288 288 288 287 286 286
267 267 267 267 266 266 265 265 264 264 264 263 263 263 263 262 262 262 262 262 261 261 261 261 261 261 262 262 262 262 262 263 263 264 265 266 267 268 269 269 269 270 270 271 271 271 271 270 270 271 271 272 273 274 275 276 277 278 278 279 280 280 281 281 282 283 284 284 284 284 285 285 285 285 285 286 286 286 287 287 288 288 287 287 286
266 265 265 265 265 265 265 264 264 263 263 263 263 262 262 262 262 262 261 261 261 261 261 261 261 261 261 261 262 262 263 263 264 264 265 267 268 268 269 270 270 270 271 271 271 271 271 270 270 270 271 272 272 273 274 275 275 276 277 278 279 279 280 281 282 283 284 284 284 284 284 285 285 285 285 285 286 286 286 286 287 287 287 287 287
264 264 264 264 264 264 264 263 263 263 263 263 262 262 262 262 262 261 261 261 261 261 261 261 261 261 261 261 262 263 263 264 264 265 266 267 268 268 269 270 270 270 271 271 271 271 271 271 271 271 272 273 273 274 274 274 274 275 276 276 277 278 279 280 281 282 283 284 285 285 285 285 285 285 285 285 285 286 286 286 286 287 287 287 287
264 264 264 264 264 263 263 263 263 263 263 262 262 262 262 262 261 261 261 261 261 261 261 261 261 261 261 262 262 263 264 264 265 265 266 267 267 268 269 269 270 271 271 271 271 271 271 272 272 273 273 273 273 273 273 273 273 274 274 275 276 276 277 277 279 280 282 284 285 285 285 285 285 285 285 285 285 285 285 286 286 286 286 286 286
263 263 263 263 263 263 263 263 263 262 262 262 262 262 262 261 261 261 261 261 261 261 260 261 261 261 262 262 263 264 265 265 266 266 267 267 267 268 268 269 270 270 271 271 271 271 271 272 272 272 272 272 272 272 273 273 273 274 274 274 274 275 276 276 277 279 280 282 284 285 286 286 285 285 285 285 285 285 285 285 285 285 285 286 285
263 263 263 263 262 262 262 262 262 262 262 262 262 262 262 261 261 261 261 261 261 261 261 261 262 262 263 264 265 265 266 267 267 267 267 268 268 268 268 269 269 270 270 270 270 270 271 271 271 271 272 272 273 273 273 273 273 273 273 274 274 274 275 276 277 278 279 280 282 284 285 286 286 286 285 285 285 285 285 285 285 285 285 285 284
262 262 262 262 262 262 262 262 262 262 262 262 261 261 261 261 261 261 261 261 261 262 262 263 263 264 265 266 266 267 268 268 268 268 268 269 269 270 270 270 270 270 270 270 270 270 271 271 271 271 272 272 272 273 273 273 273 273 273 274 274 274 275 275 276 277 278 280 281 283 285 285 286 285 285 285 285 285 285 285 284 284 284 283 283
262 262 262 262 262 262 262 261 261 261 261 261 261 261 261 261 261 262 262 263 263 264 264 265 266 266 267 267 268 268 268 268 269 269 270 271 271 272 271 271 272 272 272 272 272 272 272 272 272 272 272 272 272 272 272 273 273 273 273 273 274 274 275 275 276 277 278 280 281 282 284 285 285 285 285 285 285 285 284 284 284 284 283 282 282
262 262 262 261 261 261 261 261 261 261 261 261 261 261 261 261 262 263 263 263 264 265 266 267 267 268 268 269 269 269 269 269 270 270 271 272 272 272 272 272 273 273 273 273 273 273 273 273 273 273 272 272 272 272 272 272 273 273 273 273 274 274 275 275 276 277 277 279 281 282 283 284 285 285 285 285 285 284 284 284 284 283 282 281 281
261 261 261 261 261 261 261 261 261 261 261 261 261 260 260 261 262 263 263 263 264 265 266 267 267 268 268 269 269 269 269 270 270 271 271 272 272 272 272 273 273 273 273 273 273 273 273 272 272 272 272 272 272 272 272 272 272 273 273 273 274 274 274 275 276 276 277 278 281 282 283 284 285 286 285 285 284 284 283 283 283 283 282 281 281
261 261 261 261 260 260 260 260 260 260 260 260 260 260 260 260 261 262 263 263 263 264 265 266 267 267 268 268 268 268 269 269 270 271 271 271 271 272 272 272 273 273 273 273 272 272 271 271 270 270 270 271 271 271 271 272 272 273 273 273 274 274 274 274 275 275 276 277 280 282 283 284 285 285 285 284 284 283 283 282 282 282 281 280 280
261 260 260 260 260 260 260 260 260 260 260 260 260 260 260 259 260 261 262 262 262 263 264 265 265 266 266 267 268 268 269 269 270 270 270 271 271 271 272 272 272 272 272 271 270 270 270 269 269 270 270 270 270 271 271 272 272 272 273 273 273 274 274 274 274 275 275 276 278 281 283 283 284 284 284 284 283 283 282 281 281 281 280 280 280
260 260 260 259 259 260 260 260 260 259 259 259 259 259 260 260 260 260 260 261 261 262 263 263 264 265 265 266 267 267 268 268 269 269 270 271 271 272 272 272 271 270 270 269 269 269 269 269 269 269 270 270 271 271 271 272 272 272 273 273 273 273 274 274 274 275 276 277 278 280 282 284 284 284 284 283 283 282 282 281 280 280 280 279 279
260 260 259 259 259 259 259 259 259 259 259 259 259 259 260 260 260 260 260 260 261 261 262 262 263 263 264 265 266 266 267 267 268 269 270 270 271 271 270 269 268 268 268 268 268 269 269 269 269 270 270 271 271 271 272 272 272 273 273 273 273 273 274 274 275 275 276 277 278 280 282 284 284 283 283 282 282 281 281 280 280 279 279 279 279
260 259 259 259 259 259 259 259 259 259 259 259 259 259 260 260 260 260 260 260 261 261 261 261 262 262 263 263 264 264 265 266 267 269 269 270 270 269 268 267 267 268 268 268 268 269 269 269 270 270 270 270 270 271 271 272 272 273 273 274 274 274 274 274 275 276 276 277 279 280 282 283 283 283 282 282 281 281 280 280 279 279 279 278 278
259 259 259 259 258 258 259 259 259 259 259 259 259 259 259 259 260 260 260 260 261 261 261 261 261 261 262 262 263 263 264 265 267 268 267 267 266 266 266 266 267 267 267 267 267 267 268 268 268 268 268 269 269 269 270 271 272 272 273 274 274 274 274 274 275 276 276 277 278 280 281 282 282 282 282 281 281 280 280 279 279 278 278 278 278
259 258 258 258 258 258 259 259 259 258 258 258 258 259 259 259 259 260 260 260 260 260 260 260 261 261 262 262 262 263 264 265 266 265 264 264 264 264 264 264 265 265 265 265 265 265 266 266 266 266 267 267 268 268 269 271 272 273 273 274 274 274 274 275 275 275 276 277 278 280 281 281 282 281 281 280 280 279 279 279 278 277 277 277 277
259 259 258 258 258 258 258 258 258 258 258 258 258 258 259 259 259 259 260 260 260 260 260 260 260 261 261 261 262 263 265 265 264 263 262 262 262 262 263 263 263 263 264 263 263 263 264 264 265 265 266 266 267 267 269 271 273 274 275 275 275 275 275 275 275 276 276 277 279 280 281 281 281 281 281 280 280 279 279 278 277 277 276 276 276
259 259 258 258 258 258 258 258 258 258 258 258 258 258 258 258 259 259 259 259 259 259 259 260 260 261 261 261 263 264 265 264 263 262 262 262 262 262 262 262 262 262 262 262 262 262 262 263 264 264 265 265 266 268 269 270 272 275 276 275 275 275 275 275 276 277 277 278 279 280 281 281 281 280 280 280 280 279 278 277 276 276 276 276 276
259 259 258 258 257 258 257 257 257 257 257 258 258 258 258 258 258 258 259 259 259 259 259 260 260 260 261 262 264 265 264 262 262 261 261 261 261 261 261 261 261 261 261 261 261 261 262 262 263 263 264 265 266 267 268 269 271 274 276 276 276 276 276 276 277 277 278 278 279 280 280 280 280 280 279 279 279 278 277 276 276 276 275 275 275
259 259 258 258 258 258 257 257 257 257 257 257 257 258 258 258 258 258 258 258 258 259 259 260 260 260 261 262 263 263 262 261 261 261 261 261 261 261 261 261 261 261 261 261 261 261 262 262 263 263 264 264 265 266 267 268 269 271 273 275 276 276 277 277 278 278 279 279 279 280 280 280 279 279 279 278 278 277 276 275 275 275 275 274 274
259 259 258 258 258 257 257 257 257 257 257 257 257 257 257 258 258 258 258 258 258 259 259 259 260 260 261 261 262 262 261 261 261 261 261 261 261 261 261 261 261 261 261 262 262 262 262 262 263 263 264 264 265 266 266 267 268 269 271 273 274 275 276 276 277 277 278 279 279 279 279 278 278 278 277 277 276 275 275 274 274 274 274 274 273
259 259 259 259 258 258 257 257 257 257 257 257 257 257 257 257 258 258 258 258 259 259 259 259 260 260 260 261 261 261 261 261 261 261 261 261 261 261 261 261 261 262 262 262 263 263 263 263 263 264 264 265 266 266 267 267 268 269 269 270 272 273 274 275 275 275 276 277 277 277 277 276 276 276 275 275 275 274 274 273 273 273 273 273 273
260 259 259 258 258 258 258 257 257 257 257 257 257 257 257 258 258 258 258 258 259 259 259 259 260 260 260 260 260 260 261 261 261 261 261 261 261 261 261 261 261 262 262 263 263 263 264 264 264 265 265 266 266 267 267 268 268 269 269 270 270 271 272 273 273 274 274 275 275 274 274 274 274 274 274 274 273 273 273 272 272 272 272 272 272
260 259 259 258 258 258 258 257 257 257 257 257 257 257 258 258 258 258 258 258 259 259 259 259 259 260 260 260 260 260 260 260 261 261 261 261 261 261 261 261 261 262 262 263 263 264 264 265 265 265 266 266 267 267 267 268 268 269 270 270 270 270 271 271 272 273 273 274 274 273 273 273 273 273 273 272 272 272 272 272 272 272 272 272 272
260 259 259 258 258 258 258 257 257 257 257 257 257 257 257 258 258 258 258 258 258 258 259 259 259 259 259 259 259 260 260 260 260 260 261 261 261 261 261 261 262 262 263 263 264 264 265 265 266 266 266 267 267 267 267 267 268 268 269 269 269 270 270 271 271 272 272 273 273 273 272 272 272 271 272 272 271 271 271 271 271 271 271 271 271
260 260 259 259 259 258 258 257 257 257 257 257 257 257 258 258 258 258 258 258 258 258 258 259 259 259 259 259 259 259 259 260 260 260 260 261 261 261 262 262 262 262 263 263 264 264 265 265 266 266 267 267 267 268 267 268 268 268 268 268 269 269 270 270 271 271 271 271 272 272 272 271 271 271 271 271 271 271 271 271 271 271 271 271 271
260 260 260 260 259 258 258 258 257 257 257 257 257 258 258 258 258 258 258 258 258 258 259 259 259 259 259 259 259 260 260 260 260 260 260 261 261 262 262 262 262 263 263 263 264 264 264 265 265 266 267 267 268 268 268 268 268 268 268 268 268 269 269 270 270 270 270 271 271 271 271 270 270 270 270 270 270 270 270 270 270 270 270 270 271
260 260 260 260 260 259 259 258 258 258 258 258 257 258 258 258 258 258 258 258 258 259 259 259 259 259 259 259 259 260 260 260 260 260 260 260 261 262 262 263 263 263 263 264 264 264 264 265 265 266 266 267 267 268 268 269 269 268 268 268 268 268 269 269 269 269 270 270 270 270 270 270 270 270 270 270 270 270 270 269 270 270 270 270 270
261 260 260 260 260 260 260 260 259 259 259 259 258 258 258 258 258 258 257 258 258 259 259 259 259 259 259 259 259 259 260 260 260 260 261 261 261 262 262 263 263 263 263 264 264 264 264 265 265 265 266 266 267 267 268 268 269 269 269 268 268 268 268 268 269 269 269 269 269 269 269 269 269 269 269 269 269 269 269 269 269 269 269 269 269
Wind_Speed
12 13 13 13 14 15 15 15 17 18 19 21 22 24 25 25 26 27 28 28 29 29 30 30 30 30 31 31 31 31 31 30 29 27 25 25 24 24 25 25 25 25 25 26 26 26 27 27 28 28 28 28 29 28 28 29 29 29 28 29 31 32 31 27 19 17 21 26 26 27 28 31 35 38 40 41 43 44 45 47 48 47 47 48 48
7 7 8 9 9 11 13 13 14 17 18 20 22 24 25 25 25 26 27 28 28 29 30 31 31 31 31 32 32 32 32 32 32 31 30 29 28 27 26 26 26 27 26 27 27 27 28 29 29 29 29 29 30 29 28 28 28 30 29 28 30 31 30 30 25 19 20 25 27 28 29 31 35 38 39 41 42 43 45 47 48 48 49 49 49
2 3 3 5 5 7 9 9 10 14 16 18 21 23 25 25 25 26 27 27 28 28 29 30 31 32 32 33 34 34 34 35 34 34 34 33 32 32 30 28 27 28 28 28 28 28 29 30 31 31 29 30 30 29 29 29 28 29 30 29 30 31 30 31 30 25 22 24 27 29 30 31 35 37 38 40 42 43 45 47 47 49 50 50 51
1 2 3 4 5 6 8 8 9 12 14 17 20 22 24 25 25 26 26 27 28 28 29 30 30 31 32 34 35 36 36 37 37 36 36 35 35 35 34 33 31 30 29 29 29 29 30 31 32 32 30 30 31 30 29 29 29 29 30 30 30 30 30 31 33 31 27 25 26 28 29 31 35 36 36 39 41 43 45 46 46 48 50 50 51
4 5 6 7 8 9 10 11 12 14 15 18 20 22 24 25 25 25 26 27 28 28 30 31 31 31 32 33 34 36 37 37 38 39 39 38 37 36 36 36 35 34 33 32 30 29 30 32 33 33 31 31 32 32 30 30 30 29 30 30 29 30 30 30 33 33 30 28 28 27 27 30 33 34 34 36 38 40 42 43 44 45 46 48 49
6 6 7 7 9 10 12 14 15 17 19 21 23 25 26 26 26 26 26 26 27 28 29 31 31 32 33 34 34 35 36 36 36 38 38 38 38 38 38 37 37 36 36 36 34 32 31 32 34 34 33 33 33 33 32 31 31 30 30 31 30 29 29 29 30 31 31 32 30 27 28 30 32 33 33 34 36 37 38 39 40 41 41 43 45
5 5 5 6 8 11 14 16 19 22 23 25 26 27 27 27 27 28 27 27 28 28 29 31 32 32 33 34 34 35 35 36 36 36 36 35 35 36 37 37 38 37 37 37 37 36 35 35 35 35 34 35 35 35 34 33 32 32 32 31 30 29 29 29 29 29 30 31 30 28 28 29 31 33 34 33 33 37 38 34 32 35 38 40 43
4 4 6 8 10 13 16 18 21 24 26 27 27 28 28 28 28 29 29 28 29 29 30 32 34 34 34 34 34 34 34 35 36 36 35 34 34 35 36 37 38 38 38 38 37 37 37 37 37 37 36 36 36 37 36 35 33 33 34 32 30 29 29 29 27 27 28 28 27 27 27 26 28 31 30 27 27 33 35 31 28 32 37 39 43
6 7 9 12 14 17 20 22 25 26 27 28 28 28 29 29 30 30 30 30 30 31 32 33 34 35 35 35 35 34 34 35 35 35 34 35 35 36 36 36 37 37 38 39 39 39 39 39 39 39 38 38 38 38 38 37 36 36 36 34 31 30 29 28 27 26 26 25 25 26 24 23 26 26 26 27 30 30 29 29 32 33 33 35 40
10 12 14 16 19 21 23 25 26 27 27 28 29 29 30 30 31 31 32 33 33 33 34 33 32 33 33 34 34 34 34 35 35 34 32 33 34 35 35 36 36 36 37 38 40 41 41 41 40 40 40 40 40 39 39 40 39 40 40 38 35 32 30 28 27 27 25 23 24 24 19 20 26 26 26 30 33 29 26 30 32 29 25 25 32
13 15 18 20 21 23 24 25 26 26 27 28 29 30 31 32 33 34 35 36 36 35 34 34 33 32 32 33 34 34 35 35 34 33 33 33 34 35 35 36 36 37 37 38 39 40 41 42 42 42 42 41 41 41 40 40 40 41 43 42 40 38 35 32 30 29 27 24 26 25 21 22 28 28 26 29 31 29 30 31 29 26 23 19 19
16 18 19 20 21 22 23 24 25 26 26 26 28 29 31 34 35 36 37 37 37 36 36 35 36 35 34 35 37 37 38 37 34 32 33 34 34 34 36 37 37 38 38 39 40 41 41 41 41 41 41 41 41 41 41 41 41 41 42 43 44 43 41 39 36 33 30 27 27 28 26 27 30 28 26 28 28 29 32 31 30 29 26 23 21
17 19 19 20 20 21 22 23 24 24 25 26 28 30 32 34 34 34 36 36 36 38 38 38 39 39 38 37 39 40 40 37 32 32 33 33 33 33 35 36 38 39 39 40 41 42 43 43 42 41 42 42 41 41 41 42 42 41 40 41 43 44 44 44 43 42 39 35 31 31 33 32 31 30 29 27 27 29 30 30 31 31 28 28 31
17 18 18 19 20 20 20 21 22 24 26 28 30 31 31 32 32 32 33 35 36 37 39 40 40 39 37 36 37 40 40 37 32 32 32 32 32 32 33 36 38 39 41 42 42 42 42 42 43 43 43 43 43 42 41 41 41 40 39 38 39 42 43 44 44 45 45 42 38 38 41 39 36 36 34 29 29 31 31 31 32 32 33 35 37
17 17 17 17 18 18 19 21 24 26 28 29 30 31 31 31 31 31 32 34 35 36 37 37 37 37 35 35 36 40 40 35 32 31 31 30 31 31 31 33 36 38 41 42 42 43 43 43 44 45 45 46 45 44 42 41 40 40 40 39 39 39 41 43 44 44 44 44 43 45 47 45 42 41 39 34 33 34 34 34 35 36 38 38 36
17 16 16 15 16 18 20 23 25 27 28 29 30 31 31 31 30 31 32 34 34 34 34 34 35 36 36 35 36 39 39 33 30 30 30 30 31 30 29 31 34 37 39 40 39 40 40 41 41 42 42 43 43 41 40 40 40 40 41 41 41 40 40 42 43 45 46 45 45 46 48 49 46 44 42 38 36 36 35 33 35 35 32 28 27
16 15 15 15 17 20 21 23 25 26 27 29 30 31 30 31 31 30 31 34 34 33 34 35 34 34 36 36 34 37 38 33 30 31 31 30 30 29 28 30 32 34 37 38 38 39 40 41 41 42 43 43 42 40 40 40 40 40 39 39 39 39 41 42 42 44 46 47 48 48 48 50 49 46 45 42 39 38 33 28 29 30 26 17 16
14 15 16 18 20 21 22 23 25 26 27 28 29 30 30 31 31 30 30 33 34 34 34 35 35 33 34 35 34 34 37 34 30 30 31 30 29 28 28 29 30 31 33 33 33 34 36 37 37 39 42 42 41 41 40 40 40 39 37 36 35 36 39 42 42 41 41 43 45 46 48 49 49 47 45 43 41 39 36 32 31 30 24 18 16
14 16 18 20 21 22 22 23 24 26 27 28 29 30 31 31 31 30 30 31 34 35 33 34 35 34 33 34 33 32 35 35 31 30 30 29 28 28 28 28 29 30 30 31 30 30 31 32 33 35 38 39 40 40 39 39 39 39 38 36 36 37 40 43 42 40 39 38 39 41 44 46 47 46 44 43 42 41 40 39 37 32 27 24 23
15 18 19 20 21 21 22 24 24 25 27 28 29 30 30 30 31 31 32 32 33 34 33 33 35 35 33 33 33 32 34 34 31 29 29 29 28 28 29 28 29 29 29 29 31 31 30 31 30 31 33 35 37 38 39 39 39 40 40 37 34 35 37 38 38 38 38 38 38 39 41 43 44 43 41 40 41 41 41 41 40 36 32 29 28
17 18 19 20 21 22 23 24 25 26 26 28 30 30 30 30 30 31 32 33 32 32 32 32 33 34 32 31 32 31 31 32 31 29 29 29 28 28 30 29 29 30 30 29 30 29 29 29 29 29 30 33 34 35 36 37 37 39 40 41 40 40 39 38 38 39 39 39 39 39 40 40 40 39 37 37 38 39 40 41 41 40 37 34 31
16 17 19 20 22 23 24 24 25 26 27 27 30 31 31 30 30 30 31 32 31 31 32 32 31 32 32 30 31 31 30 30 30 29 28 29 28 29 30 30 30 31 31 29 29 30 30 30 31 30 32 33 35 36 37 39 40 40 39 40 42 44 44 44 42 40 39 39 38 37 37 37 37 36 35 35 36 37 37 39 41 42 41 42 39
16 18 19 21 22 23 24 24 25 26 27 27 29 31 32 31 30 30 30 30 30 29 30 30 30 30 31 30 31 32 32 32 32 30 29 29 29 29 30 31 31 32 31 30 30 30 30 31 32 33 34 34 35 36 37 39 41 42 42 41 41 42 43 43 41 39 39 37 35 34 34 34 34 34 34 34 35 37 37 37 39 40 39 41 43
17 19 20 22 23 24 24 25 25 26 26 27 28 30 31 31 30 29 29 28 28 28 29 29 28 28 29 31 32 34 34 34 34 32 30 29 29 29 30 31 31 31 32 32 32 32 33 34 35 36 36 36 37 37 37 37 38 41 42 42 42 41 41 40 39 39 38 35 31 30 32 34 34 34 34 35 35 36 36 35 36 37 37 37 39
18 19 21 22 23 24 25 25 25 26 25 26 27 29 30 31 30 29 28 27 27 27 28 28 28 28 29 30 32 34 35 34 34 33 31 30 30 30 30 30 31 31 32 33 34 35 36 37 37 37 37 37 37 36 35 34 34 36 38 40 40 40 39 37 37 36 33 32 30 29 31 34 36 36 37 36 34 32 32 32 32 33 34 34 35
19 20 21 23 23 24 25 26 26 26 26 25 26 28 29 29 29 29 29 27 27 27 28 28 27 27 27 29 31 33 33 32 31 31 31 31 33 33 33 32 31 31 33 34 34 36 37 38 39 39 38 37 35 34 34 34 34 36 37 38 39 39 38 36 34 33 31 32 33 33 33 34 36 36 36 33 31 30 30 30 29 29 31 32 31
19 21 22 23 24 24 24 25 26 26 26 26 26 28 28 28 27 28 29 28 27 27 27 27 26 26 28 29 30 30 30 30 29 30 31 32 33 34 33 33 32 32 33 34 36 37 39 40 39 39 38 37 35 35 35 35 35 35 34 35 35 35 36 36 36 36 36 36 38 37 37 35 33 32 32 30 30 31 31 29 27 26 28 29 27
19 21 22 23 24 23 23 24 25 26 26 26 26 28 29 28 27 28 29 29 27 27 27 27 28 29 29 29 28 28 28 29 29 29 30 31 31 31 30 30 30 30 31 34 36 37 37 37 35 35 34 33 32 32 33 33 34 34 34 34 34 35 36 38 39 40 40 38 38 38 36 33 30 29 29 29 29 30 30 29 28 27 27 25 21
19 21 22 23 23 23 23 24 24 25 26 26 26 27 29 28 27 27 30 30 28 28 29 29 29 30 30 29 29 27 27 27 29 30 31 31 33 34 33 31 31 31 31 34 34 32 29 27 27 27 27 27 27 28 30 31 32 33 34 34 33 33 34 33 32 34 37 36 34 34 33 29 27 28 27 27 28 29 29 27 27 26 24 22 20
20 21 22 22 23 23 23 24 24 24 25 26 27 28 29 29 27 26 28 30 30 29 29 30 31 32 31 30 29 28 28 30 32 33 32 33 34 35 35 33 33 34 34 34 31 27 23 22 23 23 25 25 25 26 28 29 29 29 30 31 31 31 30 30 29 29 33 35 34 33 32 29 26 26 25 25 25 26 26 27 28 26 23 21 19
21 22 22 23 23 23 23 23 24 24 24 25 25 27 29 33 33 29 26 26 29 30 30 30 29 29 28 29 29 29 30 32 33 33 33 33 34 34 33 33 33 34 34 32 27 23 21 20 20 23 25 25 25 27 28 27 27 28 28 28 31 31 30 31 31 28 28 33 34 34 33 30 27 25 24 24 24 23 23 24 25 24 23 22 20
20 22 23 24 24 23 22 23 23 23 24 24 25 25 26 29 34 36 33 28 27 27 28 28 26 25 26 27 29 30 30 31 32 33 33 33 34 34 34 34 33 31 31 29 24 22 22 21 21 24 27 26 26 28 30 29 28 29 27 26 29 32 33 32 32 29 27 29 30 30 29 28 25 23 23 23 22 21 20 21 22 22 22 21 20
19 22 23 23 23 23 22 22 22 23 23 24 25 25 25 24 27 34 39 39 35 30 25 22 21 23 27 28 29 30 31 31 31 32 32 32 33 34 34 32 29 27 27 25 22 22 23 23 24 26 27 27 28 30 31 31 31 31 29 28 29 33 36 36 33 31 29 29 28 28 28 28 26 24 22 22 22 20 19 20 21 21 19 18 18
19 20 20 20 20 21 22 21 22 23 23 24 24 25 25 24 24 27 31 35 38 38 35 29 24 23 27 29 30 29 30 31 31 31 31 32 33 34 32 28 26 26 26 24 22 23 24 24 25 27 28 29 31 32 32 33 33 32 31 30 31 33 37 36 32 30 29 29 29 29 28 27 26 24 21 21 21 21 20 20 21 20 18 17 17
18 18 18 17 18 20 21 21 22 23 24 24 24 24 24 25 25 25 25 25 28 32 37 40 38 33 29 29 29 30 31 32 32 32 32 31 32 31 29 25 25 26 26 25 25 25 26 26 27 28 29 29 32 33 33 33 34 33 31 30 30 32 34 34 30 29 29 28 28 28 24 21 22 23 21 20 19 18 18 19 20 20 20 19 17
17 18 18 17 17 18 19 20 21 22 22 23 23 24 24 24 25 25 26 25 24 25 29 35 40 40 35 30 29 30 32 33 33 32 31 29 28 27 24 22 23 24 24 25 26 26 27 27 28 30 31 31 33 35 35 33 33 33 32 30 29 29 30 29 26 25 25 25 25 25 21 16 17 19 20 20 20 19 18 19 20 21 21 20 18
16 17 18 18 18 18 19 19 19 20 20 21 22 23 24 24 24 24 24 24 24 25 26 29 33 37 37 35 33 33 33 33 32 30 28 26 25 24 21 21 21 21 22 24 25 26 27 28 28 30 32 33 34 35 35 35 35 34 33 31 29 28 28 28 25 23 23 23 23 23 20 16 15 17 18 17 18 20 20 20 20 20 21 21 18
16 16 17 17 17 18 18 19 19 20 20 20 21 22 23 23 23 23 23 23 23 23 25 26 26 27 31 35 37 36 35 33 31 31 30 29 27 24 23 22 22 21 23 25 25 26 27 29 30 32 33 34 34 35 35 35 34 32 31 29 27 26 26 26 25 24 23 22 23 24 22 19 16 17 18 15 14 16 18 19 19 18 17 18 18
16 16 16 16 16 16 17 19 20 21 21 21 20 21 21 22 22 22 22 22 23 22 23 24 24 24 26 30 33 34 32 29 29 31 32 31 28 26 25 25 24 24 25 26 27 27 27 29 31 32 33 34 35 34 34 34 33 30 27 24 21 21 23 23 23 22 21 22 23 21 19 17 16 18 20 19 17 17 17 18 19 18 17 18 19
15 16 17 16 15 16 17 18 19 19 20 21 21 20 20 20 20 21 21 22 22 22 22 22 24 25 27 28 29 29 28 26 27 28 29 29 28 27 26 26 26 26 28 28 29 29 29 30 32 32 34 35 36 34 34 34 33 27 23 20 19 19 20 21 22 22 21 21 22 20 18 17 17 18 19 20 20 20 20 19 20 21 20 19 20
15 16 16 16 16 16 17 17 18 19 20 20 21 21 20 19 19 20 21 21 21 22 22 23 24 26 27 26 26 25 24 24 25 26 26 26 27 27 26 26 27 27 28 30 30 30 30 30 31 32 34 36 36 34 33 33 33 28 20 17 18 19 20 21 22 22 21 20 20 20 20 19 18 19 19 19 18 19 20 20 19 20 19 17 17
14 15 16 16 16 16 16 17 18 19 20 20 20 20 20 20 20 20 20 20 21 21 22 23 25 26 27 25 24 24 23 23 23 24 24 25 25 26 26 26 27 27 28 29 29 29 29 30 30 31 33 35 35 33 33 33 33 30 24 17 12 13 15 17 20 22 22 22 20 20 19 19 19 19 19 18 17 17 18 17 17 17 16 16 16
12 14 15 15 15 15 15 16 17 18 18 18 19 19 19 19 19 19 19 20 20 21 21 23 25 26 27 26 25 24 24 24 24 24 24 25 26 26 27 28 28 28 28 28 28 28 28 29 29 29 30 31 30 30 30 31 30 30 28 23 18 14 12 12 11 12 14 17 17 17 17 17 16 15 15 16 17 17 16 16 16 16 15 15 16
12 13 13 13 13 14 14 14 15 16 17 17 17 17 17 17 18 18 19 19 20 20 21 22 23 25 26 27 27 26 26 25 25 25 25 26 27 28 29 29 29 29 29 29 28 28 27 28 28 29 29 29 29 28 28 28 27 27 26 24 21 19 16 14 12 9 6 6 8 10 11 12 13 14 14 15 17 17 16 16 16 16 15 16 16
11 11 11 12 13 13 13 14 14 15 15 16 17 17 17 17 18 18 19 19 20 21 21 21 22 23 24 26 26 26 26 26 26 26 26 27 28 29 30 30 30 30 30 29 30 29 29 28 28 29 30 31 31 30 29 29 28 27 26 23 21 19 17 14 11 9 6 2 2 4 6 8 10 12 13 15 16 16 16 16 16 16 16 16 16
10 10 10 11 12 12 13 14 14 14 15 15 16 17 17 17 18 18 19 19 20 20 20 21 22 23 23 24 25 25 25 26 26 26 27 28 29 29 30 30 30 30 29 30 30 30 30 30 29 29 30 31 32 31 31 30 29 28 26 24 21 18 16 13 10 8 5 3 3 5 7 8 9 10 12 13 14 14 14 15 15 15 15 15 15
9 9 9 9 10 11 12 13 13 14 15 15 16 16 17 18 18 18 18 19 19 19 20 21 22 23 24 24 24 25 25 26 26 26 27 28 29 29 30 30 30 30 30 30 30 31 31 32 32 31 30 30 31 31 31 30 28 27 25 24 22 18 15 13 10 9 7 6 5 7 8 10 10 11 11 12 13 13 14 14 13 13 13 13 14
8 8 8 9 9 10 11 12 13 13 14 15 16 16 17 17 17 18 18 18 19 19 20 22 22 23 23 24 24 25 25 25 26 26 27 27 28 29 29 30 30 30 30 31 31 31 31 32 32 32 32 31 30 29 30 30 29 27 25 23 20 18 16 14 12 10 9 8 8 9 10 12 12 12 12 13 13 14 14 14 13 13 14 13 13
8 8 8 8 8 9 10 11 11 12 13 14 15 16 16 17 17 17 18 18 18 19 20 21 22 22 23 24 24 25 25 26 27 27 27 28 28 28 28 28 29 29 30 30 31 31 31 32 32 32 32 32 31 29 28 28 28 28 26 23 20 18 16 15 13 12 10 10 10 11 12 13 14 14 14 14 15 15 15 15 15 15 15 14 14
8 8 8 8 8 9 9 10 10 11 11 12 14 15 16 16 16 16 17 18 18 19 19 20 21 21 22 23 24 24 25 26 26 26 27 27 27 27 27 28 28 28 29 29 29 29 30 31 32 32 32 32 31 30 29 29 28 27 25 23 22 20 18 16 15 13 13 13 13 13 14 16 17 17 16 16 16 16 17 17 16 16 16 16 15
8 8 8 8 8 8 9 10 11 11 11 12 13 14 15 16 16 16 16 17 17 18 19 19 20 20 21 21 22 22 23 24 24 25 26 26 26 26 27 27 27 27 28 28 28 28 28 29 30 31 31 31 31 30 30 29 28 26 24 23 22 21 19 18 17 16 15 14 14 15 16 17 18 19 18 18 18 18 18 18 17 17 18 18 18
Wind_Direction
49 45 41 38 33 30 24 18 15 11 8 7 3 360 357 354 352 349 348 347 347 346 345 345 344 342 341 340 340 339 337 337 337 335 332 330 328 326 325 324 320 319 319 318 318 317 311 306 302 299 296 293 290 288 288 287 285 280 275 270 265 261 257 252 256 268 264 259 259 257 255 255 253 252 251 251 250 246 243 243 244 241 239 238 237
62 57 50 42 34 27 19 11 6 2 359 357 353 351 348 347 346 343 341 340 340 339 339 338 338 337 336 335 334 333 332 331 331 331 329 326 324 322 321 319 315 313 312 311 311 312 310 306 304 303 301 295 290 288 286 285 285 281 277 272 267 264 260 255 256 265 269 263 260 258 255 251 250 251 249 249 250 249 246 244 242 241 240 240 238
80 63 49 37 28 18 11 5 356 352 350 347 343 341 339 339 339 336 335 334 332 332 332 332 332 331 330 329 328 328 326 326 325 325 323 322 320 318 316 313 310 307 306 305 305 305 305 303 301 303 302 297 292 289 286 284 281 279 276 273 269 266 263 258 256 260 267 269 263 258 256 251 250 250 249 250 251 249 247 245 243 242 241 239 238
307 340 351 358 357 352 353 351 342 340 340 337 335 334 332 332 332 331 330 328 327 326 326 325 326 325 324 323 323 322 321 321 320 318 317 316 314 312 311 309 306 303 300 299 300 299 299 297 297 299 298 295 292 290 287 283 279 276 274 272 269 267 265 261 258 258 263 268 264 258 256 255 254 253 250 248 247 244 243 243 241 239 239 238 237
316 328 330 335 342 344 345 345 339 335 334 332 330 329 328 327 327 326 326 325 323 321 321 321 321 320 318 317 317 316 315 315 314 313 312 311 309 307 307 306 304 303 300 297 295 294 292 291 292 294 293 289 288 288 286 283 279 275 272 270 267 266 265 261 259 258 259 262 263 261 257 255 256 255 250 244 241 240 240 239 238 236 236 236 236
316 321 328 335 343 345 343 340 337 335 333 331 329 328 326 326 325 324 323 322 319 317 316 316 316 315 314 312 310 309 308 308 306 305 305 305 305 305 304 303 302 301 299 298 296 293 290 288 287 287 286 284 283 284 284 282 279 275 271 269 267 265 263 261 259 257 256 259 262 261 256 252 252 253 251 245 239 236 235 236 237 235 233 233 233
322 330 342 346 342 338 335 333 332 331 330 329 327 326 325 325 324 324 323 321 318 316 314 313 312 311 309 308 306 305 304 303 301 299 299 299 300 300 301 301 300 298 297 295 294 293 291 289 286 282 280 279 279 280 280 279 278 275 272 270 267 264 262 260 258 256 255 258 260 259 256 253 249 249 251 247 241 237 233 230 232 232 231 231 232
343 347 343 337 330 326 324 323 323 323 323 321 320 320 320 321 321 321 320 318 316 315 313 312 310 309 307 305 304 302 301 299 298 297 298 299 299 298 298 297 297 296 295 294 292 291 289 288 286 282 279 276 276 277 276 275 274 273 272 270 267 263 260 259 257 255 254 256 258 258 257 254 247 244 244 238 232 232 229 224 228 230 229 230 231
332 330 328 326 324 322 320 319 318 318 317 315 314 314 315 315 315 315 314 314 313 311 310 309 308 307 306 305 304 303 300 298 297 297 298 299 299 298 297 296 295 294 293 293 291 290 288 285 283 281 280 278 276 275 274 273 272 270 270 268 264 261 259 257 256 254 254 255 257 257 255 252 246 238 232 226 225 231 228 222 227 232 229 230 233
324 323 324 323 321 320 318 317 315 315 314 313 313 313 313 313 312 312 311 311 310 309 308 306 305 304 303 303 302 301 299 297 297 298 299 298 298 297 296 295 294 292 291 290 288 287 286 285 283 281 280 280 278 275 273 272 270 269 269 267 262 259 257 255 253 252 252 252 255 255 252 251 248 239 233 232 232 233 227 219 224 229 224 228 237
320 321 322 321 319 317 315 314 313 313 313 313 313 313 312 312 312 311 311 311 310 309 308 306 305 304 303 302 301 299 297 296 297 299 299 298 297 297 296 294 292 290 288 286 285 284 283 283 282 282 281 279 278 277 275 272 270 269 269 268 264 260 255 253 252 250 249 250 253 254 251 252 253 245 239 239 235 230 227 223 222 221 215 217 235
317 318 319 317 315 314 313 312 312 314 314 313 312 311 310 309 310 311 311 310 310 309 307 306 305 304 304 303 301 300 297 296 299 301 299 298 297 295 294 291 289 286 284 282 282 281 281 280 280 279 279 279 278 277 276 274 272 269 269 268 267 263 258 254 252 250 248 248 250 251 249 251 256 252 243 239 234 228 228 226 222 221 219 220 230
314 314 315 314 314 314 314 313 313 313 313 311 309 308 308 308 309 309 308 307 307 306 305 305 304 304 306 305 303 302 300 300 304 304 302 300 298 295 292 288 285 283 281 279 278 278 278 279 278 277 276 276 276 275 275 275 275 272 270 268 267 265 262 258 255 252 250 248 248 250 250 250 253 254 248 243 235 226 225 225 225 224 224 227 232
313 313 314 315 315 315 314 312 311 310 309 309 308 308 308 308 308 307 306 305 305 304 304 304 304 305 307 307 305 303 302 304 308 307 304 303 300 296 291 287 283 281 279 277 276 275 275 275 276 276 275 275 275 275 275 275 275 274 272 269 265 264 263 262 259 256 252 249 248 250 252 251 251 252 252 247 239 230 225 224 225 226 228 234 238
315 316 317 317 314 312 310 308 308 308 308 309 309 308 308 307 307 307 306 305 304 304 304 305 305 306 307 307 306 304 303 306 310 308 307 306 302 298 292 287 285 282 280 278 276 274 274 273 273 273 273 274 274 274 275 275 275 274 273 271 267 263 261 260 260 259 256 252 249 250 252 252 252 252 252 248 244 242 238 234 233 232 232 237 241
317 318 317 314 308 306 307 307 308 309 309 310 309 309 309 308 308 308 307 306 305 304 304 305 305 306 306 307 306 304 304 308 309 308 308 306 303 299 293 288 286 284 282 280 279 277 276 275 274 274 274 274 273 273 273 274 274 273 271 270 269 267 263 261 260 261 261 258 255 253 254 255 253 253 252 248 246 247 245 240 236 231 229 232 237
318 316 310 306 305 306 308 309 309 309 310 310 310 310 310 309 308 309 308 306 305 304 304 304 304 305 305 306 306 303 303 307 308 307 307 305 303 300 294 289 287 284 283 282 281 280 279 278 278 278 278 277 275 274 274 274 274 272 269 267 266 266 266 266 265 263 262 262 260 258 258 258 257 255 254 251 248 245 242 236 229 225 223 226 233
313 308 304 304 307 309 310 310 310 311 310 310 309 309 309 308 307 308 306 304 303 303 304 304 304 304 304 304 304 302 302 304 306 305 304 303 302 299 295 292 289 287 286 285 283 282 282 281 280 279 279 278 277 276 274 273 272 272 271 270 268 266 267 267 268 266 263 262 261 260 259 259 258 256 254 252 249 244 237 233 231 226 223 224 232
305 301 303 306 308 310 312 312 312 311 310 309 308 308 307 306 306 306 304 303 302 303 304 303 303 303 303 303 303 302 301 303 306 304 303 302 300 298 295 293 291 291 291 291 290 290 289 287 285 283 282 281 279 277 275 273 272 272 271 270 266 263 263 264 265 265 264 262 260 259 258 258 257 255 253 250 248 243 238 236 234 229 225 227 232
299 301 304 308 310 313 315 314 313 312 310 310 309 307 305 305 305 305 304 303 302 302 303 303 302 303 304 304 304 303 302 303 304 304 302 301 300 298 295 292 291 292 292 292 291 291 290 290 289 288 286 284 282 280 277 273 271 271 271 269 265 263 264 264 263 262 263 262 261 260 259 258 257 255 252 249 247 243 240 237 235 231 229 230 231
302 305 308 311 313 315 316 315 314 313 312 311 309 307 305 305 304 304 304 303 302 302 303 304 303 303 304 305 304 303 303 302 302 302 302 300 299 297 294 291 291 291 290 288 289 291 292 293 294 293 292 291 289 287 285 281 276 272 268 265 266 268 270 271 269 267 263 261 260 259 257 256 256 254 251 248 245 243 239 237 236 234 232 231 231
308 310 312 314 315 316 317 316 316 315 314 313 310 307 307 306 305 305 304 303 302 302 304 304 303 302 304 304 303 303 303 302 301 300 300 299 299 297 293 291 290 289 288 288 288 290 292 292 292 292 292 291 290 289 288 288 287 283 277 272 270 268 267 267 267 265 261 256 253 252 252 252 252 251 248 245 243 242 239 237 236 235 234 233 233
313 313 314 315 316 317 318 318 317 316 315 314 310 307 308 308 306 306 304 303 303 303 304 304 302 301 302 303 304 305 305 305 303 299 297 297 297 296 293 292 291 291 289 289 289 289 289 289 289 289 288 288 288 287 286 285 284 283 283 283 281 278 273 269 265 262 260 254 247 244 246 247 247 246 244 242 242 241 240 238 237 236 236 236 236
315 315 316 316 317 318 318 318 318 317 316 315 311 308 308 308 307 306 304 303 304 303 302 302 301 300 300 301 303 304 304 303 301 299 296 294 296 297 295 294 294 292 290 289 289 288 288 287 286 287 287 288 289 289 289 288 284 280 279 281 283 283 282 279 273 268 264 257 247 241 240 242 242 242 242 241 241 242 240 240 240 238 239 240 239
315 316 317 318 319 319 318 318 318 317 317 315 311 308 308 307 305 305 305 304 304 301 299 299 298 297 297 297 298 301 301 299 299 299 297 294 294 294 293 292 293 293 292 290 289 288 288 288 289 291 291 292 291 290 288 286 285 283 280 279 281 283 284 284 281 275 267 259 251 244 240 240 240 241 242 242 241 241 239 238 240 240 239 241 241
315 316 318 319 320 320 318 318 318 318 316 314 311 308 306 304 303 303 304 304 302 298 296 296 296 294 294 295 295 296 299 298 297 299 299 296 293 291 288 286 287 287 288 287 286 287 288 289 290 290 290 289 287 285 284 283 285 285 282 279 279 278 279 280 278 275 270 264 259 251 243 240 239 239 241 241 237 236 235 235 235 236 235 236 237
316 317 319 319 319 319 318 317 317 316 314 313 311 308 305 303 301 301 302 302 299 296 294 294 294 292 291 293 295 296 299 300 300 301 299 295 290 287 284 282 280 279 279 280 281 282 283 284 284 284 284 285 285 284 285 284 284 283 281 279 276 274 275 277 275 274 272 268 263 257 247 240 238 236 236 235 233 233 233 231 230 231 231 230 231
318 318 319 319 319 319 318 316 315 314 312 312 310 308 307 304 301 300 301 300 295 291 290 290 291 292 292 293 296 298 300 301 301 300 299 296 294 293 290 287 284 281 279 279 279 279 279 279 278 278 278 279 280 281 282 281 279 279 278 277 277 276 275 276 275 275 273 267 262 259 250 239 233 232 231 230 231 232 231 228 227 228 226 222 222
319 318 319 319 318 319 318 316 314 312 311 311 309 308 307 304 299 299 302 300 293 289 291 291 292 294 295 296 298 298 298 300 301 303 304 303 302 301 300 298 295 291 288 287 288 288 285 283 281 281 281 281 281 281 281 280 279 279 278 277 277 275 274 273 272 274 275 268 257 254 252 242 231 227 227 226 228 231 230 225 223 222 219 213 216
318 317 319 318 317 318 316 315 314 313 311 311 310 310 309 306 301 298 299 299 297 294 293 294 296 298 298 298 299 298 298 301 304 306 307 306 306 306 305 305 305 302 300 302 303 301 296 292 290 289 287 286 284 283 281 280 279 278 277 276 275 273 271 271 271 274 280 275 259 247 248 247 235 225 223 222 225 228 227 222 219 215 209 206 212
316 316 317 316 316 316 314 313 314 313 312 311 311 310 310 311 312 311 305 301 300 300 300 299 299 300 302 303 304 303 303 304 306 307 308 309 309 309 308 308 308 306 307 311 312 306 300 297 294 291 289 287 285 283 283 282 280 278 276 274 273 272 270 270 271 273 281 280 265 245 239 240 235 225 219 217 219 222 220 217 214 210 207 207 211
314 313 314 314 315 315 314 314 314 312 312 313 312 311 310 311 315 320 318 311 305 302 302 303 305 307 308 309 309 308 307 308 309 310 311 312 311 310 309 310 312 312 313 316 314 306 302 299 294 292 291 288 285 285 285 283 280 278 275 272 272 272 270 269 271 272 276 281 273 252 235 230 228 223 219 215 215 214 209 205 206 208 209 210 213
312 311 312 313 314 315 314 314 313 312 312 313 312 312 310 308 311 316 319 319 318 315 309 305 307 312 315 315 314 313 312 312 313 314 314 313 312 311 313 315 316 316 317 317 311 304 301 298 293 292 291 288 286 286 285 282 280 277 274 270 269 271 271 271 272 272 272 278 280 268 247 233 227 226 222 216 212 207 201 200 203 205 207 210 212
312 310 311 312 312 312 313 313 312 312 312 312 310 309 308 309 310 310 312 317 322 324 322 318 316 319 320 319 318 317 317 318 318 317 317 315 314 315 319 320 320 318 318 315 309 302 299 296 293 292 290 287 287 285 282 280 279 277 273 270 268 269 271 271 270 271 271 274 279 273 254 232 221 220 217 211 207 204 201 199 200 201 205 208 208
315 315 315 312 310 310 311 311 312 312 312 312 311 308 308 311 311 308 307 309 313 316 318 319 321 324 324 323 322 323 323 322 321 320 320 319 320 324 328 327 322 319 317 314 309 304 300 297 295 294 293 291 291 289 286 283 281 277 274 271 267 266 268 268 266 267 268 271 276 273 255 226 211 210 207 200 198 198 198 198 199 201 204 205 204
320 320 318 317 314 312 311 312 313 313 313 311 310 309 310 311 309 307 306 306 306 306 310 314 319 323 326 327 327 327 326 324 323 323 324 325 328 332 332 325 318 314 313 313 312 308 304 302 301 301 300 298 297 295 292 288 284 280 277 273 267 262 263 263 263 263 264 267 272 270 255 228 212 208 203 197 196 199 201 201 202 204 205 204 201
324 322 321 321 319 315 314 314 314 314 313 311 311 312 313 312 310 308 307 306 308 309 311 315 320 323 326 329 331 330 327 325 324 325 327 330 334 335 330 322 317 315 313 315 316 312 309 308 308 306 304 303 301 299 296 291 287 283 279 274 266 259 257 258 259 261 263 265 269 266 251 231 217 212 207 201 199 200 203 204 206 207 205 201 195
326 324 323 322 320 317 316 317 318 319 318 316 317 318 316 313 312 310 308 308 310 312 314 316 319 321 322 325 329 330 328 327 328 330 332 334 336 335 330 324 320 317 315 316 316 313 310 310 310 309 307 306 304 301 299 296 291 284 279 274 264 255 254 257 259 259 261 264 267 260 244 228 219 214 210 208 205 202 202 204 203 201 197 194 192
329 329 328 327 323 319 319 321 323 324 324 322 323 322 317 314 312 310 310 313 314 316 317 318 318 320 320 322 326 328 329 331 333 332 332 332 333 331 328 325 322 320 318 318 318 316 313 312 312 312 311 312 310 307 307 307 302 289 278 271 261 251 251 254 257 257 257 260 264 256 234 220 219 217 213 213 214 211 208 204 200 195 191 191 195
333 333 334 334 328 323 325 328 327 327 326 326 325 322 317 314 313 313 315 317 317 319 321 320 320 323 324 325 328 332 333 333 332 330 328 329 330 330 329 327 324 323 322 320 320 319 316 315 316 315 316 321 322 317 315 318 317 304 280 262 253 249 249 250 254 255 253 253 254 248 234 224 224 221 216 213 212 212 209 204 199 196 194 194 195
336 336 336 336 332 331 334 334 330 330 330 327 325 322 319 317 317 317 318 320 320 322 323 322 322 325 328 330 335 340 340 333 330 329 328 329 330 330 330 329 328 326 325 324 323 322 320 318 318 318 323 328 329 323 321 326 330 326 307 275 255 251 249 248 251 254 254 251 247 241 233 227 222 219 218 215 211 208 205 200 196 195 194 193 190
338 337 336 337 338 339 339 336 334 334 333 328 325 324 321 319 320 321 322 324 325 325 324 323 325 330 334 336 340 344 343 338 334 334 333 333 333 333 332 333 334 333 331 329 327 325 323 321 320 322 328 333 333 331 331 335 337 337 335 327 305 282 269 263 257 253 251 250 246 239 232 227 222 219 216 211 204 198 194 191 188 186 184 182 179
338 338 336 338 342 343 341 339 338 337 333 328 325 323 322 322 324 327 328 329 330 329 327 326 330 335 339 343 345 347 347 345 343 341 340 339 339 338 337 337 339 340 338 337 336 333 330 328 329 330 333 337 338 338 340 342 343 345 348 351 353 350 339 324 304 275 252 242 236 232 227 222 216 210 201 194 188 183 179 177 175 174 174 172 171
338 337 336 340 345 347 347 347 344 337 333 330 327 326 328 331 333 336 336 335 334 334 332 332 334 337 341 346 350 351 350 348 347 346 345 344 343 342 342 342 343 345 345 346 346 345 341 338 339 341 344 347 350 351 351 353 356 358 358 359 2 4 4 1 355 342 304 246 225 217 210 201 194 188 182 178 175 169 165 165 166 165 164 164 164
335 335 337 342 347 350 350 350 346 340 337 335 333 336 341 343 343 345 345 342 340 339 337 337 340 342 343 346 349 350 349 350 349 348 348 347 346 346 346 347 347 349 350 351 353 353 351 349 348 351 354 358 1 3 4 6 9 11 10 9 8 9 9 6 1 356 353 353 169 168 166 165 166 166 165 165 165 162 159 160 161 160 160 162 163
332 335 340 345 348 350 349 348 345 343 341 340 339 342 347 349 350 351 349 347 343 340 339 341 345 346 347 347 347 348 349 350 351 351 351 351 351 350 351 352 353 354 356 357 358 359 359 358 358 358 359 3 7 10 11 13 16 17 16 14 12 11 11 11 9 12 24 53 105 125 129 130 134 140 146 149 150 150 149 150 154 157 158 159 161
330 336 343 347 348 348 347 346 344 343 343 345 346 347 348 349 351 352 352 350 346 343 343 347 349 349 349 348 348 348 349 350 351 352 353 354 355 355 356 357 359 0 2 4 5 5 5 6 6 5 4 6 9 13 15 17 19 19 20 19 17 15 15 18 25 38 55 77 106 122 124 121 119 123 129 133 134 135 136 138 142 148 151 152 154
328 336 343 347 349 348 346 345 344 342 343 346 349 349 348 349 350 351 351 348 347 347 349 351 352 351 350 350 350 351 352 352 352 354 356 358 359 0 1 2 3 4 7 10 11 11 11 11 11 11 11 10 10 13 17 19 21 22 22 22 21 21 24 28 35 48 63 78 93 106 113 115 115 116 119 122 123 125 125 127 130 135 138 140 144
324 331 337 342 346 347 345 342 340 340 343 345 346 346 347 348 348 348 347 345 347 351 353 353 353 352 352 352 354 356 357 357 356 357 358 359 1 3 5 7 8 10 12 13 14 14 14 14 14 15 16 16 15 15 17 19 22 23 24 24 24 25 30 35 41 50 61 73 86 97 105 109 110 110 111 114 117 119 120 121 123 127 128 129 132
314 321 329 334 339 341 341 340 339 339 341 343 342 342 343 343 343 343 343 343 348 353 355 355 354 353 352 354 356 357 359 359 359 359 360 1 3 5 7 9 11 13 15 16 17 17 17 17 17 17 18 19 19 19 20 21 22 23 24 25 27 30 36 42 47 53 61 73 85 94 101 105 105 105 106 110 112 113 115 116 117 120 121 120 121
304 312 319 325 330 334 335 337 338 338 339 340 339 338 337 336 335 336 338 340 346 351 352 352 353 353 354 355 357 357 358 360 1 2 3 5 6 7 9 10 12 15 16 17 19 20 20 20 20 20 20 21 21 22 22 23 24 25 27 28 31 35 40 45 51 57 65 75 84 91 96 99 100 101 103 107 109 110 110 111 114 116 116 116 116